Hourly Weather Holodnaya Polyana

Today, 16 April, Friday

Time Temperature Precipitation Wind Pressure Humidity
00:00 +12°C° 0 mm 2 mps 743 mmHg 61%
01:00 +12°C° 0 mm 2 mps 743 mmHg 62%
02:00 +11°C° 0 mm 1 mps 743 mmHg 63%
03:00 +11°C° 0 mm 1 mps 743 mmHg 63%
04:00 +9°C° 0 mm 2 mps 743 mmHg 70%
05:00 +9°C° 0 mm 3 mps 744 mmHg 76%
06:00 +8°C° 0 mm 3 mps 744 mmHg 83%
07:00 +8°C° 0 mm 4 mps 744 mmHg 82%
08:00 +8°C° 0 mm 5 mps 745 mmHg 82%
09:00 +9°C° 0 mm 5 mps 745 mmHg 80%
10:00 +10°C° 0 mm 5 mps 745 mmHg 73%
11:00 +13°C° 0 mm 5 mps 745 mmHg 66%
12:00 +14°C° 0 mm 5 mps 745 mmHg 59%
13:00 +14°C° 0 mm 5 mps 746 mmHg 58%
14:00 +14°C° 0 mm 5 mps 746 mmHg 58%
15:00 +14°C° 0 mm 6 mps 746 mmHg 57%
16:00 +14°C° 0 mm 6 mps 746 mmHg 62%
17:00 +13°C° 0 mm 6 mps 746 mmHg 66%
18:00 +11°C° 0 mm 6 mps 746 mmHg 70%
19:00 +10°C° 0 mm 5 mps 746 mmHg 73%
20:00 +8°C° 0 mm 5 mps 746 mmHg 77%
21:00 +7°C° 0 mm 5 mps 747 mmHg 80%
22:00 +7°C° 0 mm 5 mps 747 mmHg 82%
23:00 +6°C° 0 mm 5 mps 747 mmHg 83%

Tomorrow, 17 April, Saturday

Time Temperature Precipitation Wind Pressure Humidity
00:00 +5°C° 0 mm 4 mps 747 mmHg 84%
01:00 +5°C° 0 mm 4 mps 747 mmHg 83%
02:00 +4°C° 0 mm 4 mps 747 mmHg 83%
03:00 +3°C° 0 mm 4 mps 747 mmHg 82%
04:00 +3°C° 0 mm 4 mps 747 mmHg 80%
05:00 +3°C° 0 mm 4 mps 748 mmHg 77%
06:00 +3°C° 0 mm 4 mps 748 mmHg 75%
07:00 +3°C° 0 mm 5 mps 748 mmHg 68%
08:00 +6°C° 0 mm 5 mps 748 mmHg 60%
09:00 +7°C° 0 mm 5 mps 748 mmHg 53%
10:00 +8°C° 0 mm 5 mps 748 mmHg 48%
11:00 +9°C° 0 mm 5 mps 748 mmHg 44%
12:00 +10°C° 0 mm 5 mps 748 mmHg 39%
13:00 +10°C° 0 mm 5 mps 748 mmHg 37%
14:00 +12°C° 0 mm 5 mps 747 mmHg 35%
15:00 +12°C° 0 mm 5 mps 747 mmHg 33%
16:00 +11°C° 0 mm 4 mps 747 mmHg 36%
17:00 +10°C° 0 mm 3 mps 747 mmHg 39%
18:00 +9°C° 0 mm 3 mps 747 mmHg 42%
19:00 +8°C° 0 mm 3 mps 747 mmHg 47%
20:00 +7°C° 0 mm 3 mps 747 mmHg 51%
21:00 +6°C° 0 mm 2 mps 747 mmHg 55%
22:00 +6°C° 0 mm 2 mps 747 mmHg 58%
23:00 +5°C° 0 mm 2 mps 747 mmHg 60%

Day after tomorrow, 18 April, Sunday

Time Temperature Precipitation Wind Pressure Humidity
00:00 +4°C° 0 mm 2 mps 747 mmHg 63%
01:00 +4°C° 0 mm 2 mps 747 mmHg 65%
02:00 +4°C° 0 mm 2 mps 747 mmHg 67%
03:00 +3°C° 0 mm 2 mps 747 mmHg 68%
04:00 +3°C° 0 mm 2 mps 747 mmHg 69%
05:00 +4°C° 0 mm 2 mps 747 mmHg 69%
06:00 +4°C° 0 mm 2 mps 747 mmHg 69%
07:00 +5°C° 0 mm 2 mps 747 mmHg 64%
08:00 +7°C° 0 mm 3 mps 747 mmHg 59%
09:00 +7°C° 0 mm 4 mps 747 mmHg 54%
10:00 +8°C° 0 mm 4 mps 747 mmHg 51%
11:00 +9°C° 0 mm 5 mps 747 mmHg 48%
12:00 +10°C° 0 mm 5 mps 747 mmHg 45%
13:00 +10°C° 0 mm 5 mps 747 mmHg 44%
14:00 +10°C° 0 mm 5 mps 747 mmHg 44%
15:00 +10°C° 0 mm 5 mps 747 mmHg 43%
16:00 +9°C° 0 mm 6 mps 747 mmHg 49%
17:00 +7°C° 0 mm 6 mps 748 mmHg 55%
18:00 +5°C° 0 mm 6 mps 748 mmHg 60%
19:00 +4°C° 0 mm 6 mps 748 mmHg 58%
20:00 +4°C° 0 mm 6 mps 748 mmHg 56%
21:00 +3°C° 0 mm 5 mps 749 mmHg 54%
22:00 +2°C° 0 mm 6 mps 749 mmHg 56%
23:00 +2°C° 0 mm 6 mps 749 mmHg 59%

19 April, Monday

Time Temperature Precipitation Wind Pressure Humidity
00:00 +1°C° 0 mm 6 mps 749 mmHg 62%
01:00 -1°C° 0 mm 6 mps 749 mmHg 60%
02:00 -1°C° 0 mm 6 mps 750 mmHg 59%
03:00 -2°C° 0 mm 6 mps 750 mmHg 57%
04:00 -2°C° 0 mm 6 mps 750 mmHg 58%
05:00 -2°C° 0 mm 7 mps 750 mmHg 58%
06:00 -2°C° 0 mm 7 mps 751 mmHg 58%
07:00 -1°C° 0 mm 7 mps 751 mmHg 56%
08:00 0°C° 0 mm 8 mps 751 mmHg 55%
09:00 0°C° 0 mm 8 mps 752 mmHg 53%
10:00 +1°C° 0 mm 8 mps 752 mmHg 51%
11:00 +2°C° 0 mm 8 mps 752 mmHg 49%
12:00 +3°C° 0 mm 7 mps 752 mmHg 47%
13:00 +4°C° 0 mm 7 mps 752 mmHg 44%
14:00 +5°C° 0 mm 7 mps 752 mmHg 41%
15:00 +5°C° 0 mm 7 mps 752 mmHg 37%
16:00 +5°C° 0 mm 6 mps 752 mmHg 38%
17:00 +4°C° 0 mm 6 mps 752 mmHg 38%
18:00 +5°C° 0 mm 5 mps 752 mmHg 39%
19:00 +3°C° 0 mm 5 mps 752 mmHg 40%
20:00 +2°C° 0 mm 5 mps 753 mmHg 42%
21:00 +1°C° 0 mm 5 mps 753 mmHg 44%
22:00 0°C° 0 mm 5 mps 753 mmHg 47%
23:00 -1°C° 0 mm 5 mps 753 mmHg 50%

20 April, Tuesday

Time Temperature Precipitation Wind Pressure Humidity
00:00 -1°C° 0 mm 4 mps 753 mmHg 54%
01:00 -2°C° 0 mm 4 mps 753 mmHg 57%
02:00 -2°C° 0 mm 4 mps 754 mmHg 60%
03:00 -1°C° 0 mm 3 mps 754 mmHg 63%
04:00 -2°C° 0 mm 4 mps 754 mmHg 59%
05:00 -2°C° 0 mm 4 mps 754 mmHg 54%
06:00 -2°C° 0 mm 5 mps 755 mmHg 50%
07:00 0°C° 0 mm 5 mps 755 mmHg 43%
08:00 +1°C° 0 mm 6 mps 754 mmHg 37%
09:00 +2°C° 0 mm 6 mps 754 mmHg 31%
10:00 +3°C° 0 mm 6 mps 754 mmHg 29%
11:00 +4°C° 0 mm 6 mps 754 mmHg 27%
12:00 +6°C° 0 mm 5 mps 754 mmHg 26%
13:00 +7°C° 0 mm 6 mps 753 mmHg 25%
14:00 +7°C° 0 mm 6 mps 753 mmHg 25%
15:00 +8°C° 0 mm 6 mps 752 mmHg 25%
16:00 +7°C° 0 mm 5 mps 752 mmHg 28%
17:00 +7°C° 0 mm 5 mps 752 mmHg 32%
18:00 +6°C° 0 mm 4 mps 752 mmHg 35%
19:00 +5°C° 0 mm 4 mps 752 mmHg 39%
20:00 +4°C° 0 mm 3 mps 752 mmHg 44%
21:00 +2°C° 0 mm 3 mps 752 mmHg 48%
22:00 +2°C° 0 mm 3 mps 752 mmHg 50%
23:00 +1°C° 0 mm 3 mps 752 mmHg 51%

21 April, Wednesday

Time Temperature Precipitation Wind Pressure Humidity
00:00 +1°C° 0 mm 3 mps 751 mmHg 52%
01:00 +1°C° 0 mm 3 mps 752 mmHg 53%
02:00 0°C° 0 mm 3 mps 752 mmHg 54%
03:00 +1°C° 0 mm 2 mps 752 mmHg 55%
04:00 0°C° 0 mm 3 mps 752 mmHg 52%
05:00 +1°C° 0 mm 3 mps 752 mmHg 50%
06:00 0°C° 0 mm 4 mps 752 mmHg 48%
07:00 +2°C° 0 mm 5 mps 751 mmHg 43%
08:00 +3°C° 0 mm 5 mps 751 mmHg 38%
09:00 +5°C° 0 mm 6 mps 751 mmHg 32%
10:00 +7°C° 0 mm 6 mps 751 mmHg 30%
11:00 +9°C° 0 mm 7 mps 751 mmHg 27%
12:00 +10°C° 0 mm 7 mps 751 mmHg 25%
13:00 +10°C° 0 mm 7 mps 751 mmHg 25%
14:00 +11°C° 0 mm 6 mps 750 mmHg 24%
15:00 +11°C° 0 mm 6 mps 750 mmHg 24%
16:00 +10°C° 0 mm 5 mps 750 mmHg 28%
17:00 +10°C° 0 mm 5 mps 750 mmHg 31%
18:00 +10°C° 0 mm 4 mps 750 mmHg 35%
19:00 +9°C° 0 mm 3 mps 750 mmHg 39%
20:00 +8°C° 0 mm 3 mps 750 mmHg 42%
21:00 +7°C° 0 mm 2 mps 751 mmHg 46%
22:00 +6°C° 0 mm 2 mps 751 mmHg 47%
23:00 +6°C° 0 mm 2 mps 751 mmHg 49%
Show more